Back to catalog

DELTA 1 DEB

AlivePO
NORAD 21445·DEBRIS·🇺🇸 United States

Launched Jun 12, 1975 from Vandenberg Space Force Base

Loading…

Next Passes (next 24 hours)

TLE

FreshSource: Space-Track

Epoch: Sep 13, 2026, 13:54 UTC

1 21445U 75052ED  26256.57919897 -.00000010  00000-0  66194-4 0  9993
2 21445  99.6505 266.5855 0080778 235.3317 249.5228 13.28574857714478

Track DELTA 1 DEB in real time with AllMySat

Download on the App Store